This is the latest recevied weather packets stored in our database for station/object KD0SBN-3. If no packets are shown the sender has not sent any weather packets the latest 10 day(s).
| Time | Temp. | Humidity | Pressure | Rain* | Wind** | Luminosity | Snow |
|---|---|---|---|---|---|---|---|
| 1777874720 | 9.44° C | 35% | 1024.3 hPa | 0 mm | - | 0 W/m² | - |
| 1777874416 | 9.44° C | 35% | 1024.1 hPa | 0 mm | - | 0 W/m² | - |
| 1777874115 | 9.44° C | 35% | 1024.1 hPa | 0 mm | - | 0 W/m² | - |
| 1777873812 | 8.89° C | 35% | 1024.2 hPa | 0 mm | - | 0 W/m² | - |
| 1777873508 | 9.44° C | 35% | 1024 hPa | 0 mm | - | 0 W/m² | - |
| 1777873206 | 9.44° C | 35% | 1024 hPa | 0 mm | - | 0 W/m² | - |
| 1777872902 | 9.44° C | 34% | 1024 hPa | 0 mm | - | 0 W/m² | - |
| 1777872600 | 9.44° C | 35% | 1024.1 hPa | 0 mm | - | 0 W/m² | - |
| 1777872297 | 9.44° C | 35% | 1024 hPa | 0 mm | - | 0 W/m² | - |
| 1777871995 | 9.44° C | 35% | 1024.2 hPa | 0 mm | - | 0 W/m² | - |
| 1777871691 | 9.44° C | 35% | 1024.2 hPa | 0 mm | - | 0 W/m² | - |
| 1777871387 | 9.44° C | 36% | 1024.2 hPa | 0 mm | - | 0 W/m² | - |
| 1777871085 | 9.44° C | 36% | 1024.2 hPa | 0 mm | - | 0 W/m² | - |
| 1777870782 | 8.89° C | 37% | 1024.3 hPa | 0 mm | - | 0 W/m² | - |
| 1777870477 | 9.44° C | 37% | 1024.5 hPa | 0 mm | - | 0 W/m² | - |
| 1777870174 | 8.89° C | 38% | 1024.2 hPa | 0 mm | - | 0 W/m² | - |
| 1777869871 | 8.89° C | 37% | 1024.3 hPa | 0 mm | - | 0 W/m² | - |
| 1777869569 | 8.89° C | 38% | 1024.3 hPa | 0 mm | - | 0 W/m² | - |
| 1777869266 | 8.33° C | 38% | 1024.7 hPa | 0 mm | - | 0 W/m² | - |
| 1777868963 | 7.78° C | 40% | 1024.6 hPa | 0 mm | - | 0 W/m² | - |
| 1777868659 | 8.33° C | 41% | 1024.6 hPa | 0 mm | - | 0 W/m² | - |
| 1777868356 | 8.33° C | 39% | 1024.7 hPa | 0 mm | - | 0 W/m² | - |
| 1777868052 | 8.89° C | 39% | 1024.9 hPa | 0 mm | - | 0 W/m² | - |
| 1777867748 | 8.89° C | 39% | 1024.6 hPa | 0 mm | - | 0 W/m² | - |
| 1777867446 | 9.44° C | 39% | 1024.6 hPa | 0 mm | - | 0 W/m² | - |
* Rain latest hour (hover to see other rain measurements)
** Current wind speed in m/s (hover to see current wind gust speed)